HKJKHUEN

Guest
Details From HKJK - Nairobi Jomo Kanyatta Intl
To HUEN - Entebbe Intl
Flight Number -
Tags Generated
Created
Modified
Stats Distance 282 nm / 521 km
Max Altitude 0 ft / 0 m
Waypoints 3
Social Downloads 1
Likes 0
Share VATSIM

Download

Looking for another format? Having issues loading an existing format? Contact us
Advertisement - Login to hide

Notes

Generated

Route

HKJK NN HUEN

ID Type Via Altitude Latitude Longitude Leg Dist Tot Dist Heading (true) Name
O HKJK APT - 0 ft / 0 m -1.32774˚ 36.91612˚ - 0 nm - -
NN VOR - 0 ft / 0 m 0.05300˚ 32.43800˚ 281 nm 281 nm 287° / 287° ENTEBBE VOR-DME
O HUEN APT - 0 ft / 0 m 0.05123˚ 32.43912˚ 0 nm 281 nm 148° / 148° -

Altitude Profile

Weather

Temperature
Clouds and Precipitation
Forecast for 2017-03-31 00:00 UTC. Updated an hour ago
Winds

HKJK

Details ICAO HKJK (NBO)
Name Nairobi Jomo Kanyatta Intl
Region Kenya
Timezone Africa/Nairobi (UTC+3.0)
Stats Elevation 5,330 ft / 1,625 m (AMSL)
Location -1.317073° 36.930757°
Runways 1
Magnetic Variation 0.551° E

METAR

HKJK 302200Z 01005KT 9999 FEW022 18/16 Q1023 NOSIG

Decode

TAF

TAF HKJK 301700Z 3018/3124 04005KT 9999 SCT019 TEMPO 3100/3106 SCT009 OVC016 BECMG 3108/3111 06010KT BKN025

Decode

Departure Runways

ID Width Length Bearing (true) Bearing (mag) Surface Threshold Offset Overrun Length
06 148 ft / 45 m 13,215 ft / 4,028 m 53.90° 53.35° Asphalt 0 ft / 0 m 194 ft / 59 m
24 148 ft / 45 m 13,215 ft / 4,028 m 233.90° 233.35° Asphalt 0 ft / 0 m 197 ft / 60 m

HUEN

Details ICAO HUEN (EBB)
Name ENTEBBE INTL
Region Uganda
Timezone Africa/Kampala (UTC+3.0)
Stats Elevation 3,782 ft / 1,153 m (AMSL)
Location 0.042386° 32.443504°
Runways 2
Magnetic Variation 1.481° E

METAR

HUEN 302200Z 16012KT 9999 LL FEW020 FEW022CB SCT130 23/21 Q1018 NOSIG

Decode

TAF

TAF TAF HUEN 301700Z 2018/2124 16008KT 9999 FEW021 FEW023CB SCT200 BECMG 3021/2024 34005KT -TS FEW020 FEW0022CB BKN110 FM 310000 VRB10KT 8000 -TSRA SCT018 FEW020CB OVC100 BECMG 3107/3112 18005KT 9999 FEW023 FEW025CB SCT150 FM 311700 22005KT FEW021 FEW023CB BECMG 3120/3124 33006KT -TS FEW020 FEW022CB BKN110

Decode

Destination Runways

ID Width Length Bearing (true) Bearing (mag) Surface Threshold Offset Overrun Length
12 150 ft / 46 m 8,014 ft / 2,443 m 121.34° 119.86° Asphalt 0 ft / 0 m 0 ft / 0 m
17 150 ft / 46 m 12,073 ft / 3,680 m 171.06° 169.58° Asphalt 0 ft / 0 m 0 ft / 0 m
30 150 ft / 46 m 8,014 ft / 2,443 m 301.34° 299.86° Asphalt 0 ft / 0 m 0 ft / 0 m
35 150 ft / 46 m 12,073 ft / 3,680 m 351.06° 349.58° Asphalt 0 ft / 0 m 0 ft / 0 m

Approach Navaids

Runway Type Ident Frequency Range Bearing (true) Bearing (mag) Slope Elevation
17 Localiser IEL 110.70 MHz 18 nm / 33 km 171.62° 170.14° - 3,754 ft / 1,144 m (AMSL)
17 Glidescope IEL 110.70 MHz 10 nm / 19 km 171.06° 169.58° 3.00° 3,780 ft / 1,152 m (AMSL)
17 DME IEL 110.70 MHz 18 nm / 33 km - - - 3,780 ft / 1,152 m (AMSL)

Popular Alternatives